This is the latest recevied weather packets stored in our database for station/object K7FLA. If no packets are shown the sender has not sent any weather packets the latest 10 day(s).
| Time | Temp. | Humidity | Pressure | Rain* | Wind** | Luminosity | Snow |
|---|---|---|---|---|---|---|---|
| 1777986781 | 9.44° C | 92% | 1092.8 hPa | 0 mm | - | 9 W/m² | - |
| 1777986479 | 9.44° C | 92% | 1092.7 hPa | 1.27 mm | - | 7 W/m² | - |
| 1777986177 | 9.44° C | 92% | 1092.7 hPa | 1.27 mm | - | 5 W/m² | - |
| 1777985874 | 10° C | 92% | 1092.7 hPa | 3.05 mm | - | 2 W/m² | - |
| 1777985572 | 9.44° C | 92% | 1092.7 hPa | 1.27 mm | - | 1 W/m² | - |
| 1777985268 | 9.44° C | 92% | 1092.7 hPa | 1.78 mm | - | 1 W/m² | - |
| 1777984965 | 9.44° C | 91% | 1092.8 hPa | 1.78 mm | - | 0 W/m² | - |
| 1777984660 | 9.44° C | 91% | 1092.7 hPa | 1.27 mm | - | 0 W/m² | - |
| 1777984357 | 9.44° C | 91% | 1092.7 hPa | 1.27 mm | - | 0 W/m² | - |
| 1777984054 | 9.44° C | 91% | 1092.7 hPa | 0 mm | - | 0 W/m² | - |
| 1777983751 | 9.44° C | 91% | 1092.7 hPa | 0 mm | - | 0 W/m² | - |
| 1777983448 | 9.44° C | 91% | 1092.6 hPa | 0 mm | - | 0 W/m² | - |
| 1777983144 | 9.44° C | 91% | 1092.8 hPa | 0 mm | - | 0 W/m² | - |
| 1777982841 | 9.44° C | 91% | 1093 hPa | 0 mm | - | 0 W/m² | - |
| 1777982537 | 9.44° C | 91% | 1092.7 hPa | 0 mm | - | 0 W/m² | - |
| 1777982235 | 9.44° C | 91% | 1092.4 hPa | 0 mm | - | 0 W/m² | - |
| 1777981933 | 9.44° C | 91% | 1092.4 hPa | 0 mm | - | 0 W/m² | - |
| 1777981630 | 9.44° C | 91% | 1092.5 hPa | 0 mm | - | 0 W/m² | - |
| 1777981326 | 9.44° C | 90% | 1092.7 hPa | 0 mm | - | 0 W/m² | - |
| 1777981023 | 9.44° C | 90% | 1092.8 hPa | 1.78 mm | - | 0 W/m² | - |
| 1777980720 | 9.44° C | 90% | 1093.1 hPa | 1.78 mm | - | 0 W/m² | - |
| 1777980416 | 9.44° C | 90% | 1092.8 hPa | 0 mm | - | 0 W/m² | - |
| 1777980114 | 9.44° C | 90% | 1092.8 hPa | 0 mm | - | 0 W/m² | - |
| 1777979813 | 9.44° C | 90% | 1093 hPa | 0 mm | - | 0 W/m² | - |
| 1777979509 | 9.44° C | 90% | 1093 hPa | 0 mm | - | 0 W/m² | - |
* Rain latest hour (hover to see other rain measurements)
** Current wind speed in m/s (hover to see current wind gust speed)